Weather observations for the past three days for
Nantucket, Nantucket Memorial Airport
| Date | Time (edt) | Wind (kph) | Vis. (km) | Weather | Sky Cond. | Temperature (ºC) | Relative Humidity | Wind Chill (°C) | Heat Index (°C) | Pressure | Precipitation (cm) | ||||||
|---|---|---|---|---|---|---|---|---|---|---|---|---|---|---|---|---|---|
| Air | Dwpt | 6 hour | altimeter (cm) | sea level (mb) | 1 hr | 3 hr | 6 hr | ||||||||||
| Max. | Min. | ||||||||||||||||
| 07 | 02:53 | SW 22 | 0.40 | Fog | VV002 | 11.1 | 10.6 | 97% | 75.54 | 1007.1 | |||||||
| 07 | 01:53 | SW 20 | 0.80 | Fog | VV002 | 11.1 | 11.1 | 12.8 | 11.1 | 100% | 75.57 | 1007.3 | |||||
| 07 | 00:53 | SW 26 | 6.44 | Fog/Mist | OVC003 | 11.7 | 11.1 | 96% | 75.62 | 1008.0 | |||||||
| 06 | 23:53 | SW 26 | 8.05 | Fog/Mist | OVC005 | 11.7 | 11.1 | 96% | 75.64 | 1008.6 | |||||||
| 06 | 22:53 | SW 26 | 8.05 | Fog/Mist | BKN004 OVC010 | 12.2 | 11.7 | 97% | 75.67 | 1008.8 | |||||||
| 06 | 21:53 | SW 28 G 54 | 9.66 | Fog/Mist | BKN007 OVC017 | 12.2 | 11.7 | 97% | 75.74 | 1009.6 | |||||||
| 06 | 20:53 | S 41 G 59 | 9.66 | Fog/Mist and Breezy | BKN022 OVC028 | 12.2 | 11.1 | 93% | 75.69 | 1009.2 | |||||||
| 06 | 19:53 | S 35 G 57 | 6.44 | Fog/Mist and Breezy | SCT018 SCT025 OVC044 | 11.7 | 11.1 | 13.9 | 11.7 | 96% | 75.74 | 1009.8 | |||||
| 06 | 18:53 | S 33 G 48 | 12.87 | Overcast and Breezy | BKN038 BKN065 OVC100 | 12.2 | 10.6 | 90% | 75.79 | 1010.3 | |||||||
| 06 | 17:53 | S 33 G 48 | 14.48 | Overcast and Breezy | BKN039 OVC120 | 12.8 | 10.6 | 87% | 75.82 | 1010.6 | |||||||
| 06 | 16:53 | S 31 | 14.48 | Partly Cloudy | SCT046 | 12.8 | 10 | 83% | 75.84 | 1011.2 | |||||||
| 06 | 15:53 | S 31 G 52 | 14.48 | Fair | CLR | 12.8 | 10.6 | 87% | 75.87 | 1011.6 | |||||||
| 06 | 14:53 | S 35 | 16.09 | Fair and Breezy | CLR | 13.3 | 10.6 | 84% | 75.92 | 1012.3 | |||||||
| 06 | 13:53 | S 31 G 52 | 16.09 | Fair | CLR | 13.9 | 10 | 15.6 | 12.8 | 78% | 76 | 1013.0 | |||||
| 06 | 12:53 | S 33 G 50 | 16.09 | Fair and Breezy | CLR | 14.4 | 10.6 | 78% | 76.05 | 1013.9 | |||||||
| 06 | 11:53 | S 35 G 54 | 16.09 | Fair and Breezy | CLR | 14.4 | 10.6 | 78% | 76.1 | 1014.6 | |||||||
| 06 | 10:53 | S 37 G 52 | 16.09 | Fair and Breezy | CLR | 15 | 11.1 | 78% | 76.1 | 1014.4 | |||||||
| 06 | 09:53 | S 33 G 52 | 16.09 | Fair and Breezy | CLR | 14.4 | 10.6 | 78% | 76.12 | 1014.7 | |||||||
| 06 | 08:53 | S 35 | 16.09 | Fair and Breezy | CLR | 13.9 | 10.6 | 81% | 76.1 | 1014.5 | |||||||
| 06 | 07:53 | S 31 G 50 | 14.48 | Fair | CLR | 12.8 | 10.6 | 13.3 | 11.1 | 87% | 76.12 | 1014.9 | |||||
| 06 | 06:53 | S 35 G 50 | 12.87 | Fair and Breezy | CLR | 12.8 | 10.6 | 87% | 76.1 | 1014.5 | |||||||
| 06 | 05:53 | S 26 | 11.27 | Fair | CLR | 11.7 | 10 | 89% | 76.12 | 1014.8 | |||||||
| 06 | 04:53 | S 26 | 12.87 | Fair | CLR | 11.1 | 10 | 93% | 76.12 | 1014.8 | |||||||
| 06 | 03:53 | S 26 | 12.87 | Fair | CLR | 11.7 | 10 | 89% | 76.12 | 1015.0 | |||||||
| 06 | 02:53 | SW 31 G 46 | 12.87 | Fair | CLR | 11.7 | 10.6 | 93% | 76.12 | 1014.8 | |||||||
| 06 | 01:53 | S 28 G 44 | 12.87 | Fair | CLR | 11.7 | 10 | 12.2 | 11.1 | 89% | 76.12 | 1014.8 | |||||
| 06 | 00:53 | SW 31 G 46 | 12.87 | Fair | CLR | 11.7 | 10 | 89% | 76.12 | 1014.9 | |||||||
| 05 | 23:53 | SW 30 | 12.87 | Fair | CLR | 11.1 | 10.6 | 97% | 76.15 | 1015.1 | |||||||
| 05 | 22:53 | SW 30 | 11.27 | Mostly Cloudy | BKN018 | 11.7 | 10.6 | 93% | 76.12 | 1014.8 | |||||||
| 05 | 21:53 | S 30 G 48 | 12.87 | Fair | CLR | 11.7 | 10.6 | 93% | 76.12 | 1014.8 | |||||||
| 05 | 20:53 | S 39 G 54 | 12.87 | Fair and Breezy | CLR | 12.2 | 10.6 | 90% | 76.07 | 1014.0 | |||||||
| 05 | 19:53 | S 39 G 59 | 12.87 | Fair and Breezy | CLR | 12.2 | 10 | 14.4 | 12.2 | 87% | 75.97 | 1012.9 | |||||
| 05 | 18:53 | S 39 G 56 | 14.48 | Fair and Breezy | CLR | 12.8 | 9.4 | 80% | 75.95 | 1012.5 | |||||||
| 05 | 17:53 | S 41 G 57 | 14.48 | Fair and Breezy | CLR | 13.3 | 9.4 | 77% | 75.95 | 1012.4 | |||||||
| 05 | 16:53 | SW 39 G 59 | 16.09 | Fair and Breezy | CLR | 13.9 | 10 | 78% | 75.95 | 1012.4 | |||||||
| 05 | 15:53 | SW 37 G 52 | 16.09 | Fair and Breezy | CLR | 13.9 | 10 | 78% | 75.97 | 1012.7 | |||||||
| 05 | 14:53 | SW 31 G 48 | 16.09 | Fair | CLR | 14.4 | 10 | 75% | 76 | 1013.1 | |||||||
| 05 | 13:53 | SW 31 | 16.09 | Fair | CLR | 13.9 | 10 | 15 | 12.2 | 78% | 76.05 | 1013.7 | |||||
| 05 | 12:53 | SW 26 G 43 | 16.09 | Fair | CLR | 14.4 | 10 | 75% | 76.07 | 1014.1 | |||||||
| 05 | 11:53 | SW 31 G 43 | 16.09 | Fair | CLR | 15 | 10 | 72% | 76.07 | 1014.3 | |||||||
| 05 | 10:53 | SW 26 | 16.09 | Fair | CLR | 14.4 | 10 | 75% | 76.07 | 1014.2 | |||||||
| 05 | 09:53 | SW 28 | 16.09 | A Few Clouds | FEW090 | 13.3 | 10 | 81% | 76.05 | 1014.0 | |||||||
| 05 | 08:53 | SW 30 | 16.09 | Fair | CLR | 12.8 | 9.4 | 80% | 76.05 | 1013.8 | |||||||
| 05 | 07:53 | SW 22 | 16.09 | Fair | CLR | 12.2 | 9.4 | 12.2 | 9.4 | 83% | 76.05 | 1013.8 | |||||
| 05 | 06:53 | SW 22 | 16.09 | Fair | CLR | 11.1 | 8.9 | 86% | 76.05 | 1013.7 | |||||||
| 05 | 05:53 | SW 17 | 14.48 | Fair | CLR | 10 | 8.3 | 89% | 8 | 76.02 | 1013.3 | ||||||
| 05 | 04:53 | SW 15 | 16.09 | Fair | CLR | 9.4 | 8.3 | 93% | 7 | 76 | 1013.3 | ||||||
| 05 | 03:53 | SW 15 | 16.09 | Fair | CLR | 10 | 8.3 | 89% | 8 | 76 | 1013.3 | ||||||
| 05 | 02:53 | SW 22 | 16.09 | Fair | CLR | 10 | 8.3 | 89% | 7 | 76 | 1013.2 | ||||||
| 05 | 01:53 | SW 24 | 16.09 | Fair | CLR | 10.6 | 8.3 | 10.6 | 10 | 86% | 76 | 1013.3 | |||||
| 05 | 00:53 | SW 20 | 16.09 | Fair | CLR | 10 | 8.3 | 89% | 8 | 76.02 | 1013.4 | ||||||
| 04 | 23:53 | SW 22 | 16.09 | Fair | CLR | 10 | 7.8 | 86% | 7 | 76.07 | 1014.0 | ||||||
| 04 | 22:53 | SW 24 | 16.09 | Fair | CLR | 10.6 | 7.2 | 80% | 76.05 | 1014.0 | |||||||
| 04 | 21:53 | SW 28 | 16.09 | Fair | CLR | 10.6 | 6.7 | 77% | 76.05 | 1013.8 | |||||||
| 04 | 20:53 | SW 30 | 16.09 | Fair | CLR | 10 | 6.1 | 77% | 7 | 76 | 1013.0 | ||||||
| 04 | 19:53 | SW 33 G 46 | 16.09 | Fair and Breezy | CLR | 10 | 6.7 | 13.9 | 10 | 80% | 7 | 75.92 | 1012.2 | ||||
| 04 | 18:53 | SW 31 | 16.09 | Fair | CLR | 11.1 | 7.2 | 77% | 75.9 | 1012.0 | |||||||
| 04 | 17:53 | SW 35 G 52 | 16.09 | Fair and Breezy | CLR | 11.7 | 6.7 | 72% | 75.92 | 1012.1 | |||||||
| 04 | 16:53 | SW 33 G 48 | 16.09 | Fair and Breezy | CLR | 12.2 | 6.7 | 69% | 75.92 | 1012.2 | |||||||
| 04 | 15:53 | SW 37 G 52 | 16.09 | Fair and Breezy | CLR | 12.8 | 6.7 | 67% | 75.92 | 1012.3 | |||||||
| 04 | 14:53 | SW 31 | 16.09 | Fair | CLR | 13.3 | 7.2 | 67% | 75.95 | 1012.5 | |||||||
| 04 | 13:53 | SW 39 G 50 | 16.09 | Fair and Breezy | CLR | 13.3 | 7.2 | 13.9 | 11.1 | 67% | 75.95 | 1012.6 | |||||
| 04 | 12:53 | SW 39 G 54 | 16.09 | Fair and Breezy | CLR | 13.3 | 7.8 | 70% | 75.97 | 1012.7 | |||||||
| 04 | 11:53 | SW 33 | 16.09 | Fair and Breezy | CLR | 13.3 | 7.2 | 67% | 75.97 | 1012.9 | |||||||
| 04 | 10:53 | W 39 G 54 | 16.09 | Fair and Breezy | CLR | 12.8 | 7.2 | 69% | 76 | 1013.1 | |||||||
| 04 | 09:53 | SW 35 G 52 | 16.09 | Fair and Breezy | CLR | 12.8 | 6.7 | 67% | 76.02 | 1013.3 | |||||||
| 04 | 08:53 | W 30 G 44 | 16.09 | Fair | CLR | 12.2 | 6.7 | 69% | 76.02 | 1013.4 | |||||||
| 04 | 07:53 | SW 33 | 16.09 | Fair and Breezy | CLR | 11.1 | 6.7 | 11.1 | 7.2 | 75% | 76 | 1013.3 | |||||
| 04 | 06:53 | W 26 | 16.09 | Partly Cloudy | SCT080 | 10 | 6.7 | 80% | 7 | 75.97 | 1013.0 | ||||||
| 04 | 05:53 | SW 26 | 16.09 | Overcast | OVC080 | 8.9 | 6.7 | 86% | 6 | 75.97 | 1012.9 | ||||||
| 04 | 04:53 | SW 19 | 16.09 | Overcast | OVC075 | 8.9 | 6.1 | 83% | 6 | 75.95 | 1012.4 | ||||||
| Date | Time (edt) | Wind (kph) | Vis. (km) | Weather | Sky Cond. | Air | Dwpt | Max. | Min. | Relative Humidity | Wind Chill (°C) | Heat Index (°C) | altimeter (cm) | sea level (mb) | 1 hr | 3 hr | 6 hr |
| 6 hour | |||||||||||||||||
| Temperature (ºC) | Pressure | Precipitation (cm) | |||||||||||||||